Cloud_Cover
100 100 100 100 100 100 100 100 43 74 100 100 100 100 100 100 100 100 100 45 98 78 40 10 4 4 20 25 17 50 5 5 3 5 5 5 0 0 0 0 0 0 0
100 100 100 100 100 75 96 100 99 100 100 100 100 100 98 100 98 87 100 100 94 100 90 66 54 5 5 5 5 5 4 5 5 75 60 5 2 4 0 2 2 0 0
100 100 100 100 100 100 100 71 38 34 32 12 57 100 89 100 100 100 49 38 35 56 80 27 5 5 5 5 5 51 83 86 52 42 15 6 4 0 0 4 2 0 0
99 83 81 100 100 100 100 100 100 100 100 100 100 100 100 100 100 86 21 25 5 17 5 5 38 5 5 5 27 46 100 97 86 80 5 5 1 1 1 0 5 5 1
100 84 99 100 100 100 100 100 100 100 84 54 25 17 32 64 100 72 100 100 82 79 99 63 50 6 74 81 94 100 100 100 98 5 3 0 5 5 5 5 5 0 0
100 92 56 28 14 32 54 49 40 39 17 13 91 100 90 100 100 91 100 95 100 85 51 80 81 82 62 70 71 33 72 94 61 3 5 5 4 5 5 3 1 1 0
100 23 5 50 74 68 51 11 5 67 5 96 100 100 100 100 100 100 100 100 100 85 100 100 100 80 98 100 93 70 60 75 5 5 5 5 5 5 0 1 3 5 5
33 5 6 6 5 5 5 8 28 98 96 74 100 94 100 100 100 100 100 98 100 100 100 100 99 98 100 100 100 88 95 33 5 5 5 5 5 4 5 5 5 5 31
100 19 6 5 5 5 6 98 100 100 93 100 52 62 12 100 100 100 100 100 100 100 100 88 99 100 100 100 99 100 62 6 8 6 5 5 5 5 5 3 0 5 5
100 100 94 23 4 0 59 100 100 75 31 36 6 30 100 100 100 100 100 100 96 100 100 97 100 100 100 78 39 79 69 87 99 95 92 38 5 5 5 0 0 4 5
100 100 42 5 1 5 5 46 68 17 4 14 63 100 100 100 100 100 91 100 100 100 100 99 100 99 60 94 65 70 100 100 94 100 98 3 5 32 4 5 14 52 5
74 57 5 5 5 5 51 73 7 5 35 100 100 100 100 100 100 100 99 100 100 100 100 100 34 44 96 87 100 89 100 100 100 52 71 42 5 5 59 100 96 5 5
10 5 5 5 6 76 32 5 5 31 100 100 100 100 86 63 53 60 96 97 97 100 100 100 100 100 89 97 100 100 100 76 59 100 98 63 19 100 100 98 15 5 5
2 5 5 5 12 2 5 5 5 5 21 74 80 49 5 8 50 57 20 42 73 99 100 100 100 100 100 100 100 100 100 97 98 99 96 97 100 100 99 21 5 52 5
0 4 5 3 0 5 5 5 5 5 5 5 5 5 5 7 16 6 58 100 100 100 100 100 100 98 100 100 100 99 100 100 100 100 100 100 100 100 47 69 81 5 5
1 0 0 0 5 6 14 5 5 6 5 5 5 5 5 5 72 100 100 100 100 100 100 100 93 98 98 100 100 100 74 100 100 100 100 100 100 67 97 30 99 5 5
0 1 4 4 1 5 5 5 5 5 5 5 6 41 51 39 51 100 100 100 100 100 100 100 100 100 100 100 99 100 95 100 100 100 100 99 59 8 100 90 53 5 5
5 5 2 0 0 0 5 2 1 5 5 26 39 23 10 80 76 96 95 100 97 100 100 100 100 100 100 100 100 100 100 97 100 100 100 49 9 5 93 92 88 11 56
2 5 5 4 5 5 5 5 5 5 7 27 32 54 90 97 76 89 99 100 100 100 100 100 100 100 100 100 96 86 96 100 100 100 79 11 4 5 100 99 99 29 97
4 10 53 47 78 95 95 56 20 46 10 21 69 82 92 98 100 90 64 100 100 100 100 100 100 100 96 13 93 100 100 100 100 67 60 5 22 100 100 98 100 96 99
5 5 5 42 72 66 47 12 16 45 78 86 90 88 100 99 54 56 100 100 100 99 79 55 58 61 78 100 100 100 100 100 81 81 30 5 77 100 100 99 99 100 100
5 5 4 5 5 5 6 32 80 84 92 80 81 90 94 100 91 96 55 27 58 70 68 36 70 91 100 100 100 100 100 93 96 17 3 5 23 98 100 100 100 100 84
0 4 4 5 24 5 5 49 92 34 13 6 12 95 100 100 100 92 59 70 70 63 14 31 76 55 86 100 100 97 91 78 8 5 5 5 50 100 78 97 70 100 97
5 5 5 5 5 5 5 5 5 5 7 61 100 98 100 100 91 69 50 73 60 36 27 43 38 58 93 97 100 100 74 59 70 93 65 62 78 98 86 84 98 100 100
13 27 24 14 49 16 7 5 22 82 100 98 100 100 100 85 75 56 44 46 23 44 49 25 57 87 20 72 67 66 56 71 98 100 100 100 100 97 40 53 80 100 100
15 9 45 54 88 92 38 29 31 90 100 100 100 100 90 64 24 18 31 58 45 8 11 5 6 39 80 64 58 75 97 90 17 17 44 100 100 100 99 100 100 100 100